Regional Weather Roundup
Issued by NWS

Home | Current Version | Previous Version | Graphics & Text | Print | Product List | Glossary Off
Versions: 1 2 3 4 5 6 7 8 9 10 11 12 13 14 15 16 17 18 19 20 21 22 23 24 25 26 27

000
ASUS45 KBOU 200807
RWRCO

WEATHER ROUNDUP FOR COLORADO
NATIONAL WEATHER SERVICE DENVER/BOULDER CO
100 AM MST MON FEB 20 2017

NOTE: "FAIR" INDICATES FEW OR NO CLOUDS BELOW 12000 FEET WITH NO
SIGNIFICANT WEATHER AND/OR OBSTRUCTIONS TO VISIBILITY.

COZ001>005-013-030-031-200900-
...NORTHWEST COLORADO...

CITY           SKY/WX    TMP DP  RH WIND       PRES   REMARKS
CRAIG          FAIR      27  23  85 SW3       30.00S
HAYDEN         MOCLDY    28  27  93 CALM      29.99F
MEEKER         CLOUDY    33  30  88 CALM      30.02R
MOUNT WERNER   NOT AVBL
STEAMBOAT SPGS CLOUDY    31  29  94 CALM      29.99S
WALDEN         NOT AVBL
$$

COZ006>008-011-200900-
...WEST CENTRAL VALLEYS...

CITY           SKY/WX    TMP DP  RH WIND       PRES   REMARKS
GRAND JUNCTION CLOUDY    39  39 100 E3        30.02R
MONTROSE       CLOUDY    36  35  96 SE5       30.06R
EAGLE          MOCLDY    32  31  96 SE3       30.03R
RIFLE          MOCLDY    36  34  92 S6        30.01R
DELTA          CLOUDY    40  38  93 N3        30.04R
NUCLA          FAIR      34  32  93 E7        30.08R WCI  28
$$

COZ017>023-064>068-200900-
...SOUTHWEST COLORADO...

CITY           SKY/WX    TMP DP  RH WIND       PRES   REMARKS
DURANGO        FAIR      33  30  88 NE3       29.99R
CORTEZ         CLOUDY    37  35  92 E5        30.04R
PAGOSA SPRINGS CLOUDY    32  32 100 CALM      30.00S
TELLURIDE      NOT AVBL
WOLF CREEK PAS SNOW      16  16 100 SW8       30.04R VSB 1/4 WCI   5
$$

COZ009-010-012-014-032>034-037-058>063-200900-
...CENTRAL COLORADO...

CITY           SKY/WX    TMP DP  RH WIND       PRES   REMARKS
ASPEN          CLOUDY    32  30  92 N6        29.99R WCI  26
BUENA VISTA    FLURRIES  33  25  74 N22G32    29.89R WCI  20
COPPER MTN     CLOUDY    19  14  79 MISG      29.99R
BERTHOUD PASS  HVY SNOW  10   1  67 MISG      29.85R VSB<1/4
COTTONWOOD PAS CLOUDY    32  18  55 SW23G37   29.91R WCI  19
GUNNISON       FAIR      32  27  81 NW6       29.98R WCI  26
KREMMLING      CLOUDY    36  30  80 SW5       30.00R
LEADVILLE      FLURRIES  22  17  81 N15       29.95R WCI   9
MONARCH PASS   FOG       19  18  93 W39G47    29.99R VSB 1/4 WCI  -2
SALIDA         FAIR      38  22  52 W10G20    29.95R
SUNLIGHT       NOT AVBL
WILKERSON PASS MOCLDY    19  14  79 N13G35    29.92R WCI   7
$$

COZ069>075-200900-
...SAN LUIS VALLEY/SANGRE DE CRISTO MOUNTAINS...

CITY           SKY/WX    TMP DP  RH WIND       PRES   REMARKS
ALAMOSA        MOCLDY    29  26  89 E5        29.92R WCI  24
LA VETA PASS   CLOUDY    23  19  86 NE28G41   29.86F WCI   6
SAGUACHE       CLOUDY    36  25  64 N9        29.92R
$$

COZ035-036-038>040-200900-
...NORTHERN COLORADO FRONT RANGE...

CITY           SKY/WX    TMP DP  RH WIND       PRES   REMARKS
DENVER INTL AP FAIR      41  27  57 N9        29.77R
DMNS CITY PARK   N/A     47  16  28 W18G24    29.77F
AURORA         PTCLDY    42  34  72 CALM      29.79R
FRONT RANGE AP MOCLDY    45  28  53 N9        29.79R
ERIE MUNI ARPT FAIR      46  25  43 NW9G16    29.76R
BOULDER MUN AP FAIR      48  14  25 NW25G35   29.76R
CENTENNIAL     FAIR      44  32  62 VRB5      29.79R
BROOMFIELD     FAIR      43  19  39 W7        29.78R
FORT COLLINS   FAIR      46  16  30 NW18G24   29.77R
LONGMONT       FAIR      45  37  75 SE5       29.77S
$$

COZ041-046-047-076>085-087-088-200900-
...PIKES PEAK/PALMER DIVIDE AND SOUTHERN FOOTHILLS...

CITY           SKY/WX    TMP DP  RH WIND       PRES   REMARKS
COLO. SPRINGS  MOCLDY    44  26  49 N15       29.77R
A. F. ACADEMY  FAIR      39  24  56 N7        29.78R
SCHRIEVER AFB  MOCLDY    43  25  48 N8        29.78R
ELLICOTT       FAIR     N/A N/A N/A N12       29.75R
FALCON         MOCLDY    42  25  50 N14G25    29.79R
FORT CARSON    MOCLDY    44  23  43 S5        29.77R
LIMON          FAIR      39  34  82 W10       29.74R
MONUMENT HILL  CLOUDY    34  32  93 N8        29.82R WCI  27
TRINIDAD       CLOUDY    42  18  37 W15       29.78R
$$

COZ042>045-048>051-090-091-200900-
...NORTHEAST COLORADO...

CITY           SKY/WX    TMP DP  RH WIND       PRES   REMARKS
GREELEY ARPT   FAIR      45  23  42 N17       29.78R
AKRON          CLOUDY    45  31  58 N35G48    29.73R
BURLINGTON     FAIR      42  31  64 W10       29.69R
WRAY           NOT AVBL
STERLING       CLOUDY    48  32  53 NW26G32   29.72R
HOLYOKE        FAIR      50  34  53 NW17      29.69R
FORT MORGAN    CLOUDY    47  29  50 NW15G22   29.77R
$$

COZ086-089-092>099-200900-
...SOUTHEAST COLORADO...

CITY           SKY/WX    TMP DP  RH WIND       PRES   REMARKS
PUEBLO         CLOUDY    52  22  30 W20G29    29.75R
LA JUNTA       FAIR      43  24  47 NW14      29.73R
LAMAR          FAIR      36  24  62 SW8       29.68R
SPRINGFIELD      N/A     35  26  69 SW5       29.71R WCI  31
$$




USA.gov is the U.S. government's official web portal to all federal, state and local government web resources and services.